Regional Weather Roundup
Issued by NWS

Home | Current Version | Previous Version | Text Only | Print | Product List | Glossary On
Versions: 1 2 3 4 5 6 7 8 9 10 11 12 13 14 15 16 17 18 19 20 21 22 23 24 25 26 27 28 29 30 31 32 33 34 35 36 37 38 39 40 41 42 43 44 45 46 47 48 49 50
000
ASUS44 KLUB 270301
RWRTX
WEST TEXAS WEATHER ROUNDUP
NATIONAL WEATHER SERVICE LUBBOCK TX
1000 PM CDT FRI AUG 26 2016

NOTE: "FAIR" INDICATES FEW OR NO CLOUDS BELOW 12,000 FEET WITH NO
SIGNIFICANT WEATHER AND/OR OBSTRUCTIONS TO VISIBILITY.

TXZ004-006>008-010-012-014-016-OKZ002-270400-
TEXAS PANHANDLE/OKLAHOMA PANHANDLE

CITY           SKY/WX    TMP DP  RH WIND       PRES   REMARKS
AMARILLO       CLOUDY    72  61  68 SW15      30.13R
BORGER         TSTM      70  63  78 SW13G31   30.11R
CANADIAN       CLEAR     75  66  73 S7        30.04R
DALHART        CLOUDY    65  56  72 S8        30.10R
DUMAS          CLOUDY    62  58  86 SE8       30.09R
GUYMON         CLOUDY    73  60  63 S15       30.02R
HEREFORD       TSTM      65  60  84 N12G28    30.14R
PERRYTON       CLEAR     74  66  76 S12       30.04R
$$

TXZ026-029-035-045-048-270400-
SOUTHERN PANHANDLE/SOUTH PLAINS/ROLLING PLAINS

CITY           SKY/WX    TMP DP  RH WIND       PRES   REMARKS
CHILDRESS      PTCLDY    77  65  66 SE7       30.03R
LUBBOCK        CLEAR     70  63  78 S8        30.08R
PLAINVIEW      CLEAR     68  62  81 S5        30.09R
SNYDER           N/A     73  67  82 E3        30.07R
$$

TXZ052-054-060>062-072-078-127-140-154-169-270400-
PERMIAN BASIN/CONCHO VALLEY/BIG COUNTRY/EDWARDS PLATEAU

CITY           SKY/WX    TMP DP  RH WIND       PRES   REMARKS
ABILENE        MOCLDY    76  69  79 W12G17    30.05R
BIG SPRING     CLOUDY    74  70  87 CALM      30.09R
BROWNWOOD      PTCLDY    77  70  78 SE14      30.03R
JUNCTION       PTCLDY    84  64  50 S7        30.03R
MIDLAND        CLOUDY    74  64  71 SE7       30.07R
ODESSA         CLOUDY    74  64  71 SE6       30.09R
SAN ANGELO     MOCLDY    73  68  84 S7        30.04R
SONORA         MOCLDY    73  70  88 E5        30.10R
SWEETWATER     CLOUDY    74  69  85 CALM      30.07F
WINK           CLOUDY    76  64  66 SE10      30.04R
$$

TXZ055-058-074-075-080-082-270400-
FAR WEST/SOUTHWEST MOUNTAINS/TRANS PECOS

CITY           SKY/WX    TMP DP  RH WIND       PRES   REMARKS
ALPINE         CLOUDY    68  59  72 SE9       30.22R
DRYDEN           N/A     71  66  84 S6        30.06R
EL PASO        PTCLDY    81  54  39 N15       30.06R
FORT STOCKTON  CLEAR     70  63  78 S14       30.07R
GUADALUPE PASS CLOUDY    65  58  78 NE18      30.20R
MARFA          CLOUDY   N/A N/A N/A E5        30.18R
PECOS          CLOUDY    74  64  70 SE7       30.04R
PRESIDIO       FAIR      79  66  64 NE3       30.03R
$$

TXZ014-016-019-021>030-083-270400
TEXAS TECH WEST TEXAS MESONET/TEXAS PANHANDLE/NORTHERN SOUTH PLAINS

CITY           SKY/WX    TMP DP  RH WIND       PRES   REMARKS
ABERNATHY 5ENE   N/A     68  63  82 S7        30.12R
AMARILLO 9NNE    N/A     68  62  81 NW9G15    30.13R
AMARILLO 7SSE    N/A     68  56  64 W18       30.16R
AMHERST 1NE      N/A     71  62  72 SE12      30.12R
BOOTLEG 11WNW    N/A     64  58  82 S3        30.17R
CANADIAN 6E      N/A     71  64  78 SE8       30.04R
CAPROCK CYN SP   N/A     70  65  86 SW7       30.08R
CHILDRESS 2NNE   N/A     74  66  75 SE7       30.04R
CLARENDON 2WSW   N/A     72  63  73 SE9       30.09R
CLAUDE 12SW      N/A     72  62  71 SE8       30.12R
DIMMITT 2NE      N/A     70  60  69 SE13      30.13R
FLOYDADA 2NNE    N/A     69  64  85 SE7       30.09R
FRIONA 2NE       N/A     66  62  86 SE9       30.13F
GOODLETT 3W      N/A     77  65  68 E7        30.02R
HART 3N          N/A     69  60  74 SE7       30.13R
HEREFORD 2NW   LGT RAIN  64  54  69 SE16G29   30.15R
MCLEAN 1E        N/A     70  63  79 SE6       30.08R
MEMPHIS 1NE      N/A     72  67  83 E5        30.05R
MULESHOE 2SSW    N/A     69  63  80 N6        30.15R
OLTON 6S         N/A     68  61  77 S7        30.12R
PALO DURO SP     N/A     73  62  66 S7        30.13R
PAMPA 2E         N/A     69  64  84 SE10      30.10R
PLAINVIEW 1S     N/A     71  63  77 S6        30.11R
SILVERTON 7ESE   N/A     68  62  79 SE6       30.09R
TULIA 2ENE       N/A     69  65  87 SE6       30.12R
TURKEY 2WSW      N/A     72  66  81 SE7       30.06R
UMBARGER 3NNE  LGT RAIN  62  58  87 NW17      30.18R
$$

TXZ033>036-039>041-045>048-270400
TEXAS TECH WEST TEXAS MESONET/SOUTH PLAINS

CITY           SKY/WX    TMP DP  RH WIND       PRES   REMARKS
AIKEN 3WSW       N/A     69  65  87 S6        30.12R
ANDREWS 2NE      N/A     74  65  75 E8        30.11R
ANTON 6SSW       N/A     69  62  80 SE8       30.11R
BROWNFIELD 2S    N/A     69  64  84 SE7       30.11R
DENVR CTY 7WNW   N/A     67  61  80 SE7       30.12R
GAIL 2ESE        N/A     73  67  82 SE3       30.07S
LAMESA 2SE       N/A     70  66  87 SE5       30.10R
LEVELLAND 4S     N/A     69  62  80 SE9       30.11S
LUBBOCK 3WNW     N/A     72  60  64 SE7       30.10R
MORTON 1ENE      N/A     71  61  69 SE10      30.12R
ODONNELL 1N      N/A     70  62  76 SE6       30.10R
PLAINS 3N        N/A     67  61  80 SE9       30.12R
RALLS 1SE        N/A     69  62  78 SE8       30.10R
REESE CENTER     N/A     69  62  77 SE7       30.12R
SEAGRAVES 1SW    N/A     69  64  83 SE5       30.11R
SEMINOLE 2NNE    N/A     69  64  84 E6        30.11R
SLATON 2NE       N/A     68  62  79 SE9       30.10R
SNYDER 3E        N/A     71  68  90 E6        30.06S
SUNDOWN 8SW      N/A     67  62  84 SE9       30.11S
TAHOKA 3NNE      N/A     68  64  85 SE5       30.10R
WOLFFORTH 6SSW   N/A     69  63  81 S6        30.11R
$$

TXZ031-032-036>038-042>044-270400-
TEXAS TECH WEST TEXAS MESONET/ROLLING PLAINS

CITY           SKY/WX    TMP DP  RH WIND       PRES   REMARKS
ASPERMONT 3NE    N/A     73  67  81 CALM      30.02S
FLUVANNA 3WNW    N/A     70  63  77 SE6       30.08S
GRAHAM 5SSW      N/A     71  62  73 SE7       30.09R
GUTHRIE 10WSW    N/A     75  66  71 SE3       30.03S
HASKELL 1NW      N/A     79  63  57 SE5       30.03R
JAYTON 1SSE      N/A     75  67  76 S3        30.04R
KNOX CITY 3NW    N/A     77  67  70 SE2       30.02R
LK A HENRY 1NW   N/A     73  64  71 SE5       30.06R
NORTHFIELD 1S    N/A     73  66  78 SE8       30.04R
ODELL 4ENE       N/A     79  71  78 N5        30.01R
PADUCAH 10SW     N/A     73  67  82 SW7       30.04R
POST 1NE         N/A     72  62  71 S5        30.08R
RRING SPRGS 3N   N/A     73  65  77 S7        30.08R
SEYMOUR 3NW      N/A     82  67  59 E8        30.02R
SPUR 1W          N/A     74  63  69 SE1       30.06R
WHITE RVR 6NE    N/A     73  62  70 SE5       30.08R
$$

TXZ052-054-060>062-072-078-127-140-154-169-270400-
TEXAS TECH WEST TEXAS MESONET/PERMIAN BASIN/
CONCHO VALLEY/BIG COUNTRY/EDWARDS PLATEAU

CITY           SKY/WX    TMP DP  RH WIND       PRES   REMARKS
COYANOSA 2N      N/A     76  65  69 SE9       30.06R
JUNCTION 1SSW    N/A     82  65  56 S3        30.05R
MERTZON 3NNE     N/A     72  71  95 CALM      30.07S
SAN ANGELO 7NW   N/A     75  64  70 N1        30.05R
STRLNG CT 4WSW   N/A     71  69  93 SE2       30.07S
ST LAWRNCE 5SW   N/A     74  65  73 SE6       30.08R
SWEETWATR 11SW   N/A     72  68  87 E6        30.08S
WALL 1E          N/A     74  66  75 SW5       30.06R
$$

TXZ055-058-074-075-080-082-270400-
TEXAS TECH WEST TEXAS MESONET/FAR WEST/SOUTHWEST MOUNTAINS/TRANS PECOS

CITY           SKY/WX    TMP DP  RH WIND       PRES   REMARKS
GUADLPE MTN NP   N/A     65  52  63 E3        30.23R
$$



USA.gov is the U.S. government's official web portal to all federal, state and local government web resources and services.